Orbital Elements at Epoch 2459000.5 (2020-May-31.0) TDB
Reference: JPL 26 (heliocentric ecliptic J2000)
Element | Value | Uncertainty (1-sigma) | Units |
e | .1301346674858317 | 4.5607e-08 | |
a | 3.198843855549103 | 2.5527e-08 | au |
q | 2.782563374068125 | 1.4755e-07 | au |
i | 11.05218709015796 | 5.1733e-06 | deg |
node | 128.5974267991919 | 2.831e-05 | deg |
peri | 300.8601620157813 | 3.5958e-05 | deg |
M | 52.52278488872162 | 2.1445e-05 | deg |
tp | 2458695.616982762724 (2019-Jul-31.11698276) | 0.00012384 | TDB |
period | 2089.719470092074 5.72 | 2.5015e-05 6.849e-08 | d yr |
n | .1722719269989566 | 2.0621e-09 | deg/d |
Q | 3.615124337030081 | 2.8849e-08 | au |
|
| | Orbit Determination Parameters
Additional Information
|